Location: ??
(35.4627°N, 139.3695°E)
Time: 06:17:46
(UTC+00:00)

Nadezhda 1 Rocket - Pass Details

Date: 25 November 2020
Orbit: 940 x 1006 km, 83.0° (Epoch: 20 January)

Event Time Altitude Azimuth Distance (km) Brightness Sun altitude
Exits shadow 19:44:58 17° 335° (NNW) 2,271 5.6 -20.8°
Maximum altitude 19:49:31 46° 270° (W) 1,298 4.2 -19.9°
Drops below altitude 10° 19:55:26 10° 199° (SSW) 2,716 6.3 -18.7°
Sets 19:58:00 0° 193° (SSW) 3,650 7.0 -18.2°
